{"data":{"norad_id":37739,"epoch":"2026-09-18T23:49:28.499808Z","epoch_age_seconds":144456,"freshness":"FRESH","line1":"1 37739U 11033A   26261.99269097 -.00000085  00000+0  10738-3 0  9990","line2":"2 37739  51.9843  86.8492 0000620 106.4317  59.1513 12.62259421704793","mean_motion":12.62259421,"eccentricity":6.2e-5,"inclination_deg":51.9843,"raan_deg":86.8492,"arg_perigee_deg":106.4317,"mean_anomaly_deg":59.1513,"bstar":0.00010738,"rev_number":70479,"period_min":114.0811449725,"perigee_km":1413.1493670719,"apogee_km":1414.1155464846,"semimajor_km":7791.7694567783,"source":"CELESTRAK","updated_at":"2026-09-20T09:00:45.038062Z"}}